STARLINK-31869, 60196

Orbit data source: Space-Track

STARLINK-31869, 60196 is a payload satellite owned by SpaceX/Seattle (US) in LEO that was launched on Wed, 03 Jul 2024 UTC via an FALCON 9 launch vehicle from the Air Force Eastern Test Range (AFETR). Payload-class satellites include a variety of spacecraft equipped with specific instruments for various scientific and technological missions. These include communications satellites like Starlink; space stations such as the ISS; scientific satellites like the Hubble; Earth observation satellites from companies like Planet Labs, Umbra, and HawkEye 360; GPS; miniature CubeSats for education and research; and military/defense satellites.

Loading next visibility...
Identifier
60196, 2024-124P
Orbit
LEO
Country
Flag of USUS
Related business
Manufacturer
SpaceX/Seattle
Mission
Operational Commercial Communications
Bus & Motor
STARLINK V2M, Unknown motor
Mass
730 kg wet, ~700 kg dry
Launch date (UTC)
2024-07-03 (2 years ago)
Launch vehicle
FALCON 9
Launch site
Air Force Eastern Test Range (AFETR)
Object type
Payload
Rocket body
Debris
Shape & HBR
Box + 2 Pan, 17.7 m
Radar Cross Section
33.884 m², Large (>1 m²)

Expand to show TLE details & history
Last TLE update: 6 hours ago

TLE from 6 hours ago
0 STARLINK-31869
1 60196U 24124P   26125.23090938  .00001959  00000-0  78245-4 0  9999
2 60196  53.1615  59.7789 0001554 110.7722 249.3445 15.30208050102957
Epoch: 2026-05-05T05:32Z
TLE epoch observation values (Epoch: 2026-05-05T05:32:30.570Z)
Latitude
-0.00005°
Longitude
113.54276°
Altitude
476.467 km
Speed
7.629 km/s
True Right ascension
03h 59m 06s
True Declination
0° 00' 00"
Sunlit
Object was in daylight at epoch
Visualization orbit readout
Latitude
Unknown
Longitude
Unknown
Altitude
Unknown
Speed
Unknown
Apparent Right ascension
Unknown
Apparent Declination
Unknown
Sunlit
N/A
Visualization observer readout
Local Sidereal Time
19:07:22
Azimuth
Unknown
Elevation
Unknown
Doppler factor
Unknown
Orbital elements
Apogee altitude
476.512 km
Perigee altitude
474.382 km
Semi-major axis
6,853.584 km
Eccentricity
0.00016
Inclination
53.1615°
RAAN
59.7789°
Arg. of periapsis
110.7722°
True anomaly
249.32784°
Mean anomaly
249.3445°
Eccentric anomaly
249.33617°
Mean motion
3.82531 °/min
Orbital period
94.11 mins
BSTAR
0.000078245
Loading maneuver chart data...
Computing Atmospheric mass density...
Loading historical data...
Loading historical data...
Loading historical data...
Loading historical data...
Loading historical data...
Loading historical data...
Loading historical data...

Documentation

Showing up to 5 results
|